Regional Weather Roundup
Issued by NWS

Home | Current Version | Previous Version | Text Only | Print | Product List | Glossary Off
Versions: 1 2 3 4 5 6 7 8 9 10 11 12 13 14 15 16 17 18 19 20 21 22 23 24 25 26 27 28 29 30 31 32 33 34 35 36 37 38 39 40 41 42 43 44 45 46 47 48 49 50

000
ASUS43 KFSD 261710
RWRSD

WEATHER ROUNDUP FOR SOUTH DAKOTA
NATIONAL WEATHER SERVICE SIOUX FALLS SD
1200 PM CDT TUE SEP 26 2017

NOTE: "FAIR" INDICATES FEW OR NO CLOUDS BELOW 12,000 FEET WITH NO
SIGNIFICANT WEATHER AND/OR OBSTRUCTIONS TO VISIBILITY.


SDZ001>005-009-010-012>017-261800-
NORTHWEST AND NORTH CENTRAL SOUTH DAKOTA

CITY           SKY/WX    TMP DP  RH WIND       PRES   REMARKS
BUFFALO          N/A     53  43  68 NW9       30.06S
FAITH            N/A     58  42  55 NW6       30.11S
MOBRIDGE       PTSUNNY   56  46  69 VRB3      30.11F
$$

SDZ012>016-024>037-041>051-057-063-072>074-261800-
SOUTHWEST AND SOUTH CENTRAL SOUTH DAKOTA

CITY           SKY/WX    TMP DP  RH WIND       PRES   REMARKS
RAPID CTY ARPT SUNNY     57  37  47 CALM      30.14S
PIERRE         MOSUNNY   57  44  62 MISG      30.12F
CUSTER         SUNNY     52  30  43 W8        30.17R
ELLSWORTH AFB  SUNNY     58  37  46 CALM      30.13S
PHILIP         SUNNY     61  44  53 W7G16     30.12F
PINE RIDGE     SUNNY     59  45  59 W9        30.17R
SPEARFISH      FAIR      57  39  51 NW14G22   30.14S
WINNER         FAIR      59  47  64 CALM      30.16S
$$

SDZ004>011-016>023-039-040-261800-
NORTHEAST SOUTH DAKOTA

CITY           SKY/WX    TMP DP  RH WIND       PRES   REMARKS
ABERDEEN       CLOUDY    53  47  79 W6        30.13R
WATERTOWN      CLOUDY    53  49  86 NW13      30.10R
BROOKINGS        N/A     52  47  83 NW12      30.11S
SISSETON         N/A     56  50  80 NW15      30.07F
$$

SDZ017-020-022-023-036>040-048>070-261800-
SOUTHEAST SOUTH DAKOTA

CITY           SKY/WX    TMP DP  RH WIND       PRES   REMARKS
SIOUX FALLS    CLOUDY    56  51  84 NW12      30.12S
HURON          PTSUNNY   56  46  69 NW14      30.14S
CHAMBERLAIN    MOSUNNY   58  50  74 CALM      30.16S
MITCHELL       PTSUNNY   57  46  66 N9G17     30.16R
YANKTON        CLOUDY    54  47  77 NW12      30.15S
$$

ABBREVIATIONS USED IN REMARKS
   TC - TEMPERATURE IN CELSIUS
  WCI - WIND CHILL INDEX
   HX - HEAT INDEX
  VSB - VISIBILITY





USA.gov is the U.S. government's official web portal to all federal, state and local government web resources and services.